Вернуться в каталог

SL-8 DEB

АктивенPO
NORAD 25057·DEBRIS·🇷🇺 Russia

Запущен Apr 20, 1990 с Plesetsk Cosmodrome

Loading…

Ближайшие Пролёты (ближайшие 24 часа)

TLE

СвежийSource: Space-Track

Эпоха: Sep 14, 2026, 14:17 UTC

1 25057U 90036C   26257.59527867  .00000269  00000-0  22601-3 0  9999
2 25057  82.9380 299.3544 0018270 284.7843 228.6631 13.84431651723636

Отслеживайте SL-8 DEB в реальном времени с AllMySat

Download on the App Store